Weather Service Report


249 
ASUS44 KSJT 270210
RWRSJT
WEST CENTRAL TEXAS REGIONAL WEATHER ROUNDUP
NATIONAL WEATHER SERVICE SAN ANGELO TX
900 PM CDT SUN APR 26 2015

NOTE: "FAIR" INDICATES FEW OR NO CLOUDS BELOW 12,000 FEET WITH NO
SIGNIFICANT WEATHER AND/OR OBSTRUCTIONS TO VISIBILITY.

TXZ049-054-064>066-071>073-076>078-098-099-113-114-127-128-139-140-
154-155-168>170-270300
...LOCATIONS ACROSS WEST CENTRAL TEXAS...
  
CITY           SKY/WX    TMP DP  RH WIND       PRES   REMARKS
SAN ANGELO     CLOUDY    77  34  21 W21G28    29.52R                  
ABILENE        MOCLDY    68  53  58 NE15G24   29.59R                  
DYESS AFB      MOCLDY    65  56  72 NE18      29.57R                  
JUNCTION       CLEAR     79  62  56 SE13      29.51F                  
SWEETWATER     CLOUDY    65  59  80 N18       29.65R                  
BROWNWOOD      PTCLDY    75  64  69 SE16      29.49F                  
COLEMAN        MOCLDY    72  61  67 NW7G23    29.52S                  
SONORA         MOCLDY    77  36  22 NW20G30   29.66R THUNDER          
OZONA          FAIR      73  28  19 NW29G39   29.64R                  
BRADY          CLEAR     79  61  53 SE12      29.52F                  
$$

TEXAS PANHANDLE/OKLAHOMA PANHANDLE
  
CITY           SKY/WX    TMP DP  RH WIND       PRES   REMARKS
AMARILLO       CLOUDY    49  48  97 NE24G32   29.83R                  
BORGER         RAIN      51  49  92 NE16      29.89R FOG              
CANADIAN       LGT RAIN  55  53  92 N5        29.89R                  
DALHART        RAIN      48  46  93 E16       29.88R FOG              
DUMAS          CLOUDY    47  46  95 E16       29.88R                  
GUYMON         NOT AVBL                                               
HEREFORD       CLOUDY    55  51  86 MISG      29.78R                  
PAMPA          LGT RAIN  50  49  97 NE18G24   29.86F                  
PERRYTON       CLOUDY    51  49  94 NE8       29.91R                  
$$

SOUTHERN PANHANDLE/SOUTH PLAINS/ROLLING PLAINS
  
CITY           SKY/WX    TMP DP  RH WIND       PRES   REMARKS
LUBBOCK        LGT RAIN  59  48  67 NE21G26   29.74R                  
SNYDER         CLOUDY    62  54  73 N24G31    29.67R                  
CHILDRESS      LGT RAIN  57  54  89 N20       29.80R                  
SEMINOLE       CLOUDY    64  31  29 CALM      29.71S                  
$$

PERMIAN BASIN
  
CITY           SKY/WX    TMP DP  RH WIND       PRES   REMARKS
MIDLAND        CLOUDY    69  29  22 W13       29.68R                  
ODESSA         CLOUDY    68  24  19 W10       29.69R                  
WINK           MOCLDY    67  29  24 W20G25    29.69R                  
$$

FAR WEST/SOUTHWEST MOUNTAINS/TRANS PECOS
  
CITY           SKY/WX    TMP DP  RH WIND       PRES   REMARKS
ALPINE         CLEAR     62  25  25 W14G25    29.84R                  
DRYDEN           N/A     77  31  18 N18G28    29.61R                  
EL PASO        PTCLDY    60  33  36 W22G31    29.79R                  
FORT STOCKTON  PTCLDY    67  27  22 NW14      29.72R                  
GUADALUPE PASS PTCLDY    52  31  44 W33G41    29.78S                  
MARFA          CLEAR     57  25  28 W17G25    29.80R                  
PECOS          MOCLDY    66  32  28 W17G25    29.70R                  
$$

DALLAS/FORT WORTH METROPLEX
  
CITY           SKY/WX    TMP DP  RH WIND       PRES   REMARKS
DFW AIRPORT    CLOUDY    78  61  55 E20       29.54R                  
FTW MEACHAM    LGT RAIN  77  62  59 E22G30    29.55R                  
DAL-EXECUTIVE  CLOUDY    74  64  71 E16       29.57F                  
GRAND PRAIRIE  CLOUDY    77  63  63 E18G24    29.55F                  
ADDISON        NOT AVBL                                               
MESQUITE       CLOUDY    75  64  68 E13       29.59F                  
LANCASTER      CLOUDY    72  63  73 E6        29.59F                  
$$

NORTH CENTRAL TEXAS
  
CITY           SKY/WX    TMP DP  RH WIND       PRES   REMARKS
SHRMAN/DENISON CLOUDY    76  72  86 E8        29.65R                  
GAINESVILLE    CLOUDY    73  68  85 E6        29.69R                  
BRIDGEPORT     TSTM      72  61  68 N6        29.67R                  
DENTON         LGT RAIN  78  58  49 E13G30    29.60R                  
WAXAHACHIE     CLOUDY    75  65  70 CALM      29.59F                  
GRANBURY       LGT RAIN  73  67  80 E12       29.54R                  
$$

WESTERN NORTH TEXAS
  
CITY           SKY/WX    TMP DP  RH WIND       PRES   REMARKS
WICHITA FALLS  TSTM      63  57  81 NE3       29.71R                  
VERNON         CLOUDY    63  57  80 E7        29.72R                  
BRECKENRIDGE   CLOUDY    64  56  77 NE14G20   29.62R                  
COMANCHE       CLEAR     76  67  71 S15G21    29.51R                  
$$

CENTRAL AND SOUTH CENTRAL TEXAS
  
CITY           SKY/WX    TMP DP  RH WIND       PRES   REMARKS
AUSTIN/BERGSTM MOCLDY    75  68  78 SE15      29.59R                  
WACO           MOCLDY    76  69  79 SE16      29.57R                  
HILLSBORO      MOCLDY    75  66  73 E14G21    29.57F                  
TEMPLE         MOCLDY    75  66  73 SE17G23   29.57S                  
KILLEEN-GRAY   CLEAR     76  70  79 SE22      29.56S                  
FORT HOOD      PTCLDY    77  69  76 SE17G24   29.56R                  
GEORGETOWN     CLOUDY    79  70  73 SE9       29.59R                  
LAGO VISTA     MOCLDY    78  72  80 SE7G17    29.60R                  
SAN MARCOS     MOCLDY    75  72  88 SE14      29.59R                  
NEW BRAUNFELS  PTCLDY    78  74  87 SE12      29.57R FOG              
RANDOLPH AFB   PTCLDY    77  75  91 E8        29.57R                  
SAN ANTONIO    MOCLDY    79  73  82 E12       29.56S                  
STINSON        CLEAR     78  74  87 E10       29.54R                  
PLEASANTON     NOT AVBL                                               
LA GRANGE      MOCLDY    74  64  72 SE9       29.58F                  
GIDDINGS       MOCLDY    73  59  61 S7G16     29.64S                  
$$

EAST TEXAS
  
CITY           SKY/WX    TMP DP  RH WIND       PRES   REMARKS
PARIS          CLOUDY    73  64  73 MISG      29.67R                  
CLARKSVILLE    NOT AVBL                                               
TYLER          PTCLDY    77  64  64 SE9       29.65R                  
LONGVIEW       MOCLDY    77  64  64 SE8       29.66R                  
PALESTINE      PTCLDY    75  68  78 E9        29.64S                  
NACOGDOCHES    MOCLDY    73  66  78 E6        29.67F                  
$$

TEXAS HILL COUNTRY AND EDWARDS PLATEAU
  
CITY           SKY/WX    TMP DP  RH WIND       PRES   REMARKS
LLANO          CLEAR     79  72  78 SE8       29.58R                  
HORSESHOE BAY  MOCLDY    78  72  81 E6        29.57S                  
KERRVILLE      PTCLDY    76  71  82 SE6       29.58S                  
FREDERICKSBRG  CLEAR     75  66  74 SE5       29.58S                  
ROCKSPRINGS    CLEAR     73  66  78 SE8       29.59R                  
HONDO          PTCLDY    79  72  79 SE10      29.55R                  
UVALDE         PTCLDY    77  71  81 CALM      29.52R                  
DEL RIO        PTCLDY    83  71  67 E14G21    29.44R                  
$$

SOUTHEAST TEXAS
  
CITY           SKY/WX    TMP DP  RH WIND       PRES   REMARKS
COLLEGE STN    PTCLDY    78  70  76 SE13      29.61R                  
CALDWELL       PTCLDY    75  72  88 SE12      29.62F                  
CROCKETT       NOT AVBL                                               
BRENHAM        PTCLDY    76  65  69 SE7       29.62R                  
HUNTSVILLE     PTCLDY    77  69  76 VRB5      29.62F                  
CONROE         MOCLDY    74  70  87 E5        29.63S                  
HOUSTON BUSH   CLOUDY    76  72  87 S5        29.62S                  
HOUSTON HOBBY  CLOUDY    76  73  91 SE10G17   29.60R                  
PERLAND        CLOUDY    77  73  87 SE15      29.63R FOG              
WHARTON        CLOUDY    71  68  91 E9        29.63R                  
$$

THE UPPER TEXAS COAST
  
CITY           SKY/WX    TMP DP  RH WIND       PRES   REMARKS
ORANGE         CLOUDY    76  72  87 E13G21    29.65F                  
PORT ARTHUR    CLOUDY    77  73  87 SE28G46   29.55F FOG              
GALVESTON      CLOUDY    76  74  93 E13       29.64F                  
ANGLETON       CLOUDY    74  74 100 E9        29.62S                  
BAY CITY       CLOUDY    76  75  97 E8        29.62R                  
$$

TEXAS COASTAL BEND, RIO GRANDE PLAINS DEEP SOUTH TEXAS
  
CITY           SKY/WX    TMP DP  RH WIND       PRES   REMARKS
VICTORIA       CLOUDY    72  72 100 E12       29.59S FOG              
BEEVILLE       CLOUDY    78  78 100 SE12      29.55R FOG              
ROCKPORT       CLOUDY    79  76  90 SE14      29.55R FOG              
PORT ARANSAS   CLOUDY    76  75  98 SE8       29.55R FOG              
PORT LAVACA    CLOUDY    75  75 100 E9        29.60R FOG              
CORPUS CHRISTI CLOUDY    78  76  93 SE17      29.54S FOG              
KINGSVILLE NAS CLOUDY    79  78  97 SE13      29.54R FOG              
COTULLA        MOCLDY    82  72  71 SE8       29.51R                  
LAREDO         CLOUDY    84  72  67 SE10      29.53R                  
BROWNSVILLE    CLOUDY    81  77  88 SE7       29.55R FOG              
PORT ISABEL    CLOUDY    81  76  84 SE15      29.54S HAZE             
HEBBRONVILLE   MOCLDY    81  74  80 SE5       29.56R                  
MCALLEN        PTCLDY    84  78  82 SE9       29.54R HAZE             
WESLACO        MOCLDY    81  76  84 SE7       29.54R                  
FALFURRIAS     PTCLDY    81  77  89 E6        29.52R                  
EDINBURG       PTCLDY    83  76  80 SE9       29.53R HAZE             
$$

Return to Home page


Western Regional Climate Center, wrcc@dri.edu